VA7IS Weather Reports


time (UTC)temp
C
wind
direction
speed
KPH
gust
KPH
rain 1hr
cm
rain 24hr
cm
rain mn
cm
humidity
%
barometer
mb
20260503181505 22 164 3.2 9.7 0.00 0.00 0.00 47 1012.9
20260503181003 22 188 3.2 6.4 0.00 0.00 0.00 47 1013.0
20260503180503 22 188 3.2 8.0 0.00 0.00 0.00 47 1012.9
20260503180005 21 167 3.2 9.7 0.00 0.00 0.00 47 1013.0
20260503175504 21 171 3.2 9.7 0.00 0.00 0.00 48 1013.1
20260503175004 21 179 4.8 9.7 0.00 0.00 0.00 47 1013.1
20260503174504 21 181 3.2 9.7 0.00 0.00 0.00 46 1013.1
20260503174003 21 175 3.2 8.0 0.00 0.00 0.00 46 1013.1
20260503173503 21 171 3.2 9.7 0.00 0.00 0.00 44 1013.1
20260503173004 21 172 3.2 9.7 0.00 0.00 0.00 44 1013.1
20260503172504 21 168 3.2 8.0 0.00 0.00 0.00 45 1013.2
20260503172004 21 161 3.2 6.4 0.00 0.00 0.00 45 1013.2
20260503171503 20 151 3.2 6.4 0.00 0.00 0.00 46 1013.3
20260503171004 20 154 3.2 6.4 0.00 0.00 0.00 47 1013.3
20260503170503 20 156 3.2 6.4 0.00 0.00 0.00 47 1013.3
20260503150503 14 0 0.0 1.6 0.00 0.00 0.00 54 1014.0
20260503131003 12 315 1.6 3.2 0.00 0.00 0.00 56 1013.7
20260503130504 13 0 0.0 3.2 0.00 0.00 0.00 58 1013.7
20260503110503 13 315 1.6 1.6 0.00 0.00 0.00 58 1013.7
20260503081505 15 317 1.6 3.2 0.00 0.00 0.00 57 1013.5
20260503081004 15 317 1.6 3.2 0.00 0.00 0.00 57 1013.5
20260503080505 15 317 1.6 3.2 0.00 0.00 0.00 56 1013.5
20260503071506 15 317 1.6 3.2 0.00 0.00 0.00 57 1013.3
20260503071005 15 317 1.6 3.2 0.00 0.00 0.00 57 1013.3
20260503070505 15 317 1.6 4.8 0.00 0.00 0.00 57 1013.2
20260503055004 16 317 1.6 3.2 0.00 0.00 0.00 55 1012.9
20260503054505 16 317 1.6 4.8 0.00 0.00 0.00 55 1012.9
20260503054004 16 317 1.6 4.8 0.00 0.00 0.00 55 1012.9
20260503053504 16 316 1.6 3.2 0.00 0.00 0.00 54 1012.8
20260503053004 16 317 1.6 3.2 0.00 0.00 0.00 55 1012.9
20260503052004 16 326 1.6 4.8 0.00 0.00 0.00 56 1012.8
20260503051505 16 335 1.6 4.8 0.00 0.00 0.00 56 1012.8
20260503051004 16 338 1.6 3.2 0.00 0.00 0.00 56 1012.8
20260503050504 16 338 1.6 3.2 0.00 0.00 0.00 56 1012.8
20260503050005 16 338 1.6 3.2 0.00 0.00 0.00 56 1012.7
20260503045004 16 338 1.6 3.2 0.00 0.00 0.00 56 1012.6
20260503044505 17 338 1.6 4.8 0.00 0.00 0.00 56 1012.7
20260503044005 17 338 1.6 4.8 0.00 0.00 0.00 56 1012.7
20260503043504 17 338 1.6 3.2 0.00 0.00 0.00 56 1012.7
20260503043004 17 338 1.6 3.2 0.00 0.00 0.00 56 1012.6
20260503042504 17 338 1.6 3.2 0.00 0.00 0.00 56 1012.6
20260503042004 17 351 1.6 3.2 0.00 0.00 0.00 56 1012.6
20260503041505 17 4 1.6 4.8 0.00 0.00 0.00 56 1012.6
20260503041004 17 6 1.6 4.8 0.00 0.00 0.00 56 1012.6
20260503040004 17 0 0.0 0.0 0.00 0.00 0.00 56 1012.5
20260503035504 17 0 0.0 0.0 0.00 0.00 0.00 56 1012.5
20260503035004 17 0 0.0 0.0 0.00 0.00 0.00 56 1012.4
20260503034505 17 0 0.0 0.0 0.00 0.00 0.00 56 1012.4
20260503033005 18 0 0.0 0.0 0.00 0.00 0.00 56 1012.3
20260503032504 18 0 0.0 0.0 0.00 0.00 0.00 56 1012.3
20260503031504 18 0 0.0 0.0 0.00 0.00 0.00 56 1012.2
20260503030504 18 0 0.0 0.0 0.00 0.00 0.00 56 1012.2
20260503030005 19 0 0.0 0.0 0.00 0.00 0.00 55 1012.1
20260503025504 19 0 0.0 0.0 0.00 0.00 0.00 56 1012.1
20260503025004 19 0 0.0 0.0 0.00 0.00 0.00 55 1012.1
20260503024505 20 0 0.0 0.0 0.00 0.00 0.00 55 1012.1
20260503024004 20 0 0.0 1.6 0.00 0.00 0.00 55 1012.0
20260503023005 20 97 1.6 3.2 0.00 0.00 0.00 55 1012.1
20260503022504 20 97 1.6 3.2 0.00 0.00 0.00 55 1012.1
20260503022004 20 0 0.0 3.2 0.00 0.00 0.00 55 1012.1
20260503021504 21 0 0.0 0.0 0.00 0.00 0.00 55 1012.1
20260503021005 21 0 0.0 0.0 0.00 0.00 0.00 55 1012.1
20260503020005 21 0 0.0 0.0 0.00 0.00 0.00 54 1012.2
20260503015504 21 0 0.0 0.0 0.00 0.00 0.00 54 1012.2
20260503015004 21 0 0.0 0.0 0.00 0.00 0.00 53 1012.2
20260503014505 22 0 0.0 0.0 0.00 0.00 0.00 53 1012.3
20260503014005 22 0 0.0 0.0 0.00 0.00 0.00 52 1012.3
20260503013504 22 0 0.0 0.0 0.00 0.00 0.00 52 1012.3
20260503013005 22 0 0.0 0.0 0.00 0.00 0.00 52 1012.3
20260503012505 22 0 0.0 0.0 0.00 0.00 0.00 52 1012.4
20260503012004 22 0 0.0 0.0 0.00 0.00 0.00 52 1012.4
20260503011506 22 0 0.0 0.0 0.00 0.00 0.00 52 1012.4
20260503011004 22 0 0.0 0.0 0.00 0.00 0.00 52 1012.4
20260503010004 22 0 0.0 0.0 0.00 0.00 0.00 52 1012.5
20260503005504 22 0 0.0 0.0 0.00 0.00 0.00 53 1012.5
20260503005004 22 0 0.0 0.0 0.00 0.00 0.00 53 1012.5
20260503003504 22 113 1.6 3.2 0.00 0.00 0.00 51 1012.6
20260503002504 23 114 1.6 3.2 0.00 0.00 0.00 51 1012.6
20260503002004 23 118 1.6 3.2 0.00 0.00 0.00 50 1012.7
20260503001504 23 127 1.6 4.8 0.00 0.00 0.00 50 1012.7
20260503000005 23 195 3.2 8.0 0.00 0.00 0.00 51 1012.8
20260502235504 23 138 3.2 8.0 0.00 0.00 0.00 49 1012.9
20260502235004 23 116 3.2 6.4 0.00 0.00 0.00 48 1012.9
20260502234004 24 131 1.6 4.8 0.00 0.00 0.00 48 1013.0
20260502233504 23 155 1.6 8.0 0.00 0.00 0.00 47 1013.1
20260502232504 23 159 1.6 6.4 0.00 0.00 0.00 48 1013.2
20260502232005 23 172 1.6 6.4 0.00 0.00 0.00 48 1013.2
20260502231505 24 218 3.2 8.0 0.00 0.00 0.00 47 1013.2
20260502230504 23 177 3.2 8.0 0.00 0.00 0.00 48 1013.3
20260502230004 23 154 3.2 8.0 0.00 0.00 0.00 48 1013.3
20260502224005 23 162 3.2 11.3 0.00 0.00 0.00 49 1013.7
20260502223505 23 154 3.2 8.0 0.00 0.00 0.00 50 1013.7
20260502223005 22 152 3.2 11.3 0.00 0.00 0.00 50 1013.7
20260502222505 22 158 3.2 11.3 0.00 0.00 0.00 50 1014.0
20260502221504 22 143 4.8 14.5 0.00 0.00 0.00 50 1014.1
20260502221004 22 172 4.8 14.5 0.00 0.00 0.00 51 1014.1
20260502220005 23 188 3.2 9.7 0.00 0.00 0.00 48 1014.2
20260502215505 22 235 3.2 11.3 0.00 0.00 0.00 50 1014.3
20260502215004 22 230 3.2 11.3 0.00 0.00 0.00 50 1014.2
20260502214504 22 189 4.8 12.9 0.00 0.00 0.00 51 1014.4
20260502214004 21 193 4.8 12.9 0.00 0.00 0.00 52 1014.5
20260502213504 22 220 3.2 12.9 0.00 0.00 0.00 51 1014.5
20260502213005 22 248 4.8 12.9 0.00 0.00 0.00 50 1014.6
20260502212505 22 223 4.8 12.9 0.00 0.00 0.00 51 1014.7
20260502212005 22 201 4.8 17.7 0.00 0.00 0.00 50 1014.6
20260502211505 22 201 4.8 17.7 0.00 0.00 0.00 52 1014.7
20260502211004 22 214 4.8 12.9 0.00 0.00 0.00 51 1014.7
20260502210504 22 203 4.8 14.5 0.00 0.00 0.00 51 1014.7
20260502205505 22 194 4.8 12.9 0.00 0.00 0.00 50 1014.8
20260502205005 22 194 4.8 12.9 0.00 0.00 0.00 49 1014.8
20260502204504 22 186 6.4 14.5 0.00 0.00 0.00 49 1014.9
20260502204004 22 190 6.4 14.5 0.00 0.00 0.00 48 1014.9
20260502203504 22 210 4.8 14.5 0.00 0.00 0.00 47 1015.0
20260502203004 22 225 4.8 12.9 0.00 0.00 0.00 47 1015.0
20260502202504 22 220 4.8 12.9 0.00 0.00 0.00 49 1015.1
20260502202004 22 202 4.8 12.9 0.00 0.00 0.00 47 1015.2
20260502200504 22 184 4.8 12.9 0.00 0.00 0.00 45 1015.3
20260502200005 22 188 4.8 12.9 0.00 0.00 0.00 43 1015.4
20260502195504 22 206 4.8 12.9 0.00 0.00 0.00 44 1015.4
20260502195004 22 203 4.8 12.9 0.00 0.00 0.00 43 1015.6
20260502194505 21 191 6.4 14.5 0.00 0.00 0.00 44 1015.6
20260502194004 21 194 4.8 14.5 0.00 0.00 0.00 47 1015.6
20260502193504 21 176 4.8 12.9 0.00 0.00 0.00 48 1015.7
20260502192505 22 212 3.2 16.1 0.00 0.00 0.00 48 1015.7
20260502192005 22 249 3.2 16.1 0.00 0.00 0.00 47 1015.7
20260502191505 22 240 1.6 6.4 0.00 0.00 0.00 49 1015.7
20260502191005 21 208 4.8 16.1 0.00 0.00 0.00 49 1015.8
20260502190504 20 201 4.8 16.1 0.00 0.00 0.00 51 1015.8
20260502190004 20 208 4.8 14.5 0.00 0.00 0.00 49 1015.8
20260502185504 21 174 4.8 14.5 0.00 0.00 0.00 49 1015.9
20260502185004 20 176 4.8 12.9 0.00 0.00 0.00 52 1015.8
20260502183505 21 172 3.2 14.5 0.00 0.00 0.00 52 1015.8
20260502182504 20 154 3.2 8.0 0.00 0.00 0.00 53 1015.8
20260502182004 20 157 3.2 11.3 0.00 0.00 0.00 53 1015.8